When you browse on this site, cookies collect data to enhance your experience and personalize the content and advertising you see.
Visit our Privacy Policy to learn more. By continuing to use the site, you agree to this use of cookies and data.
  • In Hungary
  • List of Countries
  • For 7 days
  • Water Temperature
  • Weather Map
  • News
  • Weather Widgets
  • user-avatar
    Login

    Hourly Weather Acopiara

    Today, 22 November, Friday

    Time Temperature Precipitation Wind Pressure Humidity
    00:00 +25°C° 0 mm 3 mps 731 mmHg 79%
    01:00 +25°C° 0 mm 3 mps 731 mmHg 80%
    02:00 +25°C° 0 mm 3 mps 731 mmHg 80%
    03:00 +25°C° 0 mm 3 mps 731 mmHg 80%
    04:00 +25°C° 0 mm 2 mps 731 mmHg 80%
    05:00 +25°C° 0 mm 2 mps 732 mmHg 80%
    06:00 +25°C° 0 mm 2 mps 732 mmHg 80%
    07:00 +27°C° 0 mm 2 mps 732 mmHg 67%
    08:00 +30°C° 0 mm 2 mps 732 mmHg 55%
    09:00 +32°C° 0 mm 2 mps 733 mmHg 43%
    10:00 +35°C° 0 mm 2 mps 732 mmHg 37%
    11:00 +37°C° 0 mm 2 mps 732 mmHg 31%
    12:00 +39°C° 0 mm 2 mps 731 mmHg 24%
    13:00 +40°C° 0 mm 2 mps 730 mmHg 22%
    14:00 +40°C° 0 mm 3 mps 729 mmHg 20%
    15:00 +40°C° 0 mm 3 mps 728 mmHg 18%
    16:00 +38°C° 0 mm 2 mps 729 mmHg 21%
    17:00 +36°C° 0 mm 2 mps 729 mmHg 23%
    18:00 +34°C° 0 mm 2 mps 729 mmHg 26%
    19:00 +31°C° 0 mm 2 mps 729 mmHg 32%
    20:00 +30°C° 0 mm 3 mps 730 mmHg 37%
    21:00 +29°C° 0 mm 4 mps 731 mmHg 42%
    22:00 +28°C° 0 mm 4 mps 731 mmHg 55%
    23:00 +26°C° 0 mm 3 mps 731 mmHg 67%

    Tomorrow, 23 November, Saturday

    Time Temperature Precipitation Wind Pressure Humidity
    00:00 +25°C° 0 mm 3 mps 731 mmHg 79%
    01:00 +24°C° 0 mm 3 mps 731 mmHg 83%
    02:00 +24°C° 0 mm 2 mps 731 mmHg 87%
    03:00 +24°C° 0 mm 2 mps 731 mmHg 90%
    04:00 +24°C° 0 mm 1 mps 731 mmHg 90%
    05:00 +24°C° 0 mm 1 mps 732 mmHg 90%
    06:00 +24°C° 0 mm 1 mps 732 mmHg 89%
    07:00 +27°C° 0 mm 1 mps 732 mmHg 73%
    08:00 +30°C° 0 mm 2 mps 733 mmHg 57%
    09:00 +34°C° 0 mm 2 mps 733 mmHg 40%
    10:00 +36°C° 0 mm 2 mps 732 mmHg 35%
    11:00 +38°C° 0 mm 2 mps 732 mmHg 29%
    12:00 +40°C° 0 mm 2 mps 731 mmHg 24%
    13:00 +40°C° 0 mm 2 mps 730 mmHg 22%
    14:00 +41°C° 0 mm 2 mps 729 mmHg 21%
    15:00 +41°C° 0 mm 2 mps 728 mmHg 20%
    16:00 +39°C° 0 mm 2 mps 728 mmHg 22%
    17:00 +36°C° 0 mm 2 mps 729 mmHg 25%
    18:00 +33°C° 0 mm 1 mps 729 mmHg 28%
    19:00 +32°C° 0 mm 2 mps 729 mmHg 33%
    20:00 +31°C° 0 mm 3 mps 730 mmHg 38%
    21:00 +30°C° 0 mm 4 mps 730 mmHg 43%
    22:00 +28°C° 0 mm 4 mps 730 mmHg 55%
    23:00 +27°C° 0 mm 4 mps 730 mmHg 67%

    Day after tomorrow, 24 November, Sunday

    Time Temperature Precipitation Wind Pressure Humidity
    00:00 +25°C° 0 mm 4 mps 730 mmHg 80%
    01:00 +25°C° 0 mm 3 mps 730 mmHg 81%
    02:00 +25°C° 0 mm 3 mps 730 mmHg 82%
    03:00 +25°C° 0 mm 3 mps 730 mmHg 83%
    04:00 +25°C° 0 mm 3 mps 731 mmHg 82%
    05:00 +25°C° 0 mm 2 mps 731 mmHg 80%
    06:00 +25°C° 0 mm 2 mps 732 mmHg 79%
    07:00 +27°C° 0 mm 2 mps 732 mmHg 73%
    08:00 +28°C° 0 mm 2 mps 732 mmHg 66%
    09:00 +29°C° 0 mm 2 mps 732 mmHg 60%
    10:00 +31°C° 0 mm 3 mps 732 mmHg 52%
    11:00 +35°C° 0 mm 3 mps 731 mmHg 44%
    12:00 +37°C° 0 mm 3 mps 731 mmHg 36%
    13:00 +38°C° 0 mm 3 mps 730 mmHg 33%
    14:00 +38°C° 0 mm 3 mps 729 mmHg 31%
    15:00 +39°C° 0 mm 2 mps 728 mmHg 28%
    16:00 +37°C° 0 mm 2 mps 728 mmHg 32%
    17:00 +35°C° 0 mm 2 mps 728 mmHg 36%
    18:00 +32°C° 0 mm 1 mps 729 mmHg 40%
    19:00 +31°C° 0 mm 2 mps 729 mmHg 43%
    20:00 +31°C° 0 mm 3 mps 730 mmHg 46%
    21:00 +30°C° 0 mm 4 mps 730 mmHg 50%
    22:00 +28°C° 0 mm 3 mps 730 mmHg 58%
    23:00 +27°C° 0 mm 3 mps 730 mmHg 66%

    25 November, Monday

    Time Temperature Precipitation Wind Pressure Humidity
    00:00 +26°C° 0 mm 3 mps 730 mmHg 74%
    01:00 +25°C° 0 mm 3 mps 730 mmHg 78%
    02:00 +25°C° 0 mm 3 mps 730 mmHg 82%
    03:00 +25°C° 0 mm 3 mps 730 mmHg 86%
    04:00 +25°C° 0 mm 3 mps 730 mmHg 83%
    05:00 +25°C° 0 mm 3 mps 731 mmHg 80%
    06:00 +26°C° 0 mm 2 mps 731 mmHg 78%
    07:00 +27°C° 0 mm 2 mps 732 mmHg 73%
    08:00 +27°C° 0 mm 3 mps 732 mmHg 69%
    09:00 +28°C° 0 mm 3 mps 732 mmHg 65%
    10:00 +31°C° 0 mm 3 mps 732 mmHg 55%
    11:00 +35°C° 0 mm 3 mps 731 mmHg 45%
    12:00 +37°C° 0 mm 3 mps 731 mmHg 35%
    13:00 +38°C° 0 mm 3 mps 730 mmHg 33%
    14:00 +38°C° 0 mm 3 mps 729 mmHg 31%
    15:00 +39°C° 0 mm 3 mps 728 mmHg 29%
    16:00 +37°C° 0 mm 3 mps 728 mmHg 33%
    17:00 +35°C° 0 mm 2 mps 729 mmHg 37%
    18:00 +32°C° 0 mm 2 mps 729 mmHg 40%
    19:00 +31°C° 0 mm 2 mps 729 mmHg 44%
    20:00 +30°C° 0 mm 3 mps 730 mmHg 48%
    21:00 +29°C° 0 mm 4 mps 730 mmHg 52%
    22:00 +28°C° 0 mm 4 mps 730 mmHg 59%
    23:00 +27°C° 0 mm 3 mps 730 mmHg 66%

    26 November, Tuesday

    Time Temperature Precipitation Wind Pressure Humidity
    00:00 +26°C° 0 mm 3 mps 730 mmHg 73%
    01:00 +25°C° 0 mm 3 mps 730 mmHg 76%
    02:00 +25°C° 0 mm 3 mps 730 mmHg 79%
    03:00 +25°C° 0 mm 2 mps 730 mmHg 83%
    04:00 +26°C° 0.1 mm 2 mps 730 mmHg 80%
    05:00 +26°C° 0.1 mm 3 mps 731 mmHg 77%
    06:00 +26°C° 0.1 mm 3 mps 731 mmHg 74%
    07:00 +28°C° 0 mm 3 mps 731 mmHg 67%
    08:00 +30°C° 0 mm 3 mps 732 mmHg 60%
    09:00 +31°C° 0 mm 3 mps 732 mmHg 53%
    10:00 +34°C° 0 mm 3 mps 732 mmHg 47%
    11:00 +36°C° 0 mm 3 mps 731 mmHg 42%
    12:00 +37°C° 0 mm 3 mps 730 mmHg 36%
    13:00 +38°C° 0 mm 3 mps 730 mmHg 35%
    14:00 +38°C° 0 mm 3 mps 729 mmHg 33%
    15:00 +38°C° 0 mm 3 mps 728 mmHg 31%
    16:00 +37°C° 0 mm 3 mps 729 mmHg 35%
    17:00 +35°C° 0 mm 3 mps 729 mmHg 40%
    18:00 +34°C° 0 mm 3 mps 729 mmHg 44%
    19:00 +33°C° 0 mm 3 mps 730 mmHg 48%
    20:00 +30°C° 0 mm 4 mps 730 mmHg 53%
    21:00 +29°C° 0 mm 4 mps 731 mmHg 58%
    22:00 +28°C° 0 mm 4 mps 731 mmHg 63%
    23:00 +27°C° 0 mm 3 mps 731 mmHg 67%

    27 November, Wednesday

    Time Temperature Precipitation Wind Pressure Humidity
    00:00 +26°C° 0 mm 3 mps 731 mmHg 72%
    01:00 +25°C° 0 mm 2 mps 731 mmHg 75%
    02:00 +25°C° 0 mm 2 mps 730 mmHg 79%
    03:00 +24°C° 0 mm 1 mps 730 mmHg 82%
    04:00 +24°C° 0 mm 2 mps 731 mmHg 82%
    05:00 +24°C° 0 mm 2 mps 731 mmHg 82%
    06:00 +24°C° 0 mm 2 mps 731 mmHg 83%
    07:00 +26°C° 0 mm 2 mps 731 mmHg 73%
    08:00 +28°C° 0 mm 2 mps 732 mmHg 64%
    09:00 +30°C° 0 mm 3 mps 732 mmHg 54%
    10:00 +33°C° 0 mm 3 mps 731 mmHg 48%
    11:00 +35°C° 0 mm 3 mps 731 mmHg 43%
    12:00 +37°C° 0 mm 2 mps 730 mmHg 37%
    13:00 +38°C° 0 mm 2 mps 730 mmHg 33%
    14:00 +39°C° 0 mm 2 mps 729 mmHg 29%
    15:00 +40°C° 0 mm 2 mps 728 mmHg 25%
    16:00 +38°C° 0 mm 2 mps 728 mmHg 28%
    17:00 +36°C° 0 mm 2 mps 728 mmHg 31%
    18:00 +35°C° 0 mm 2 mps 729 mmHg 34%
    19:00 +33°C° 0 mm 3 mps 729 mmHg 40%
    20:00 +32°C° 0 mm 4 mps 730 mmHg 46%
    21:00 +30°C° 0 mm 5 mps 730 mmHg 52%
    22:00 +28°C° 0 mm 4 mps 730 mmHg 58%
    23:00 +27°C° 0 mm 4 mps 731 mmHg 64%
    Show more